ANIK F3

Last updated on Thu Nov 21 2024 00:02:40 GMT+0000 (Coordinated Universal Time)

1 31102U 07009A 24325.27169044 .00000001 00000+0 00000+0 0 9991 2 31102 0.0023 0.0125 0002027 247.6633 151.2138 1.00271072 40807
UTC large
Height (km)
Speed (km/s)
/
Latitude / Longitude
Inclination (degrees)
Orbital Period (minutes)
Azimuth
Elevation
Range (km)
Doppler Factor

Next 0 passes for location: London (51.5072 / 0.1276)

Sorry there are no passes over London.